Regional Weather Roundup
Issued by NWS Green Bay, WI

Home | Current Version | Previous Version | Graphics & Text | Print | Product List | Glossary Off
Versions: 1 2 3 4 5 6 7 8 9 10 11 12 13 14 15 16 17 18 19 20 21 22 23 24 25 26 27 28 29 30 31 32 33 34 35 36 37 38 39 40 41 42 43 44 45 46 47 48 49 50

940
ASUS43 KGRB 080800
RWRGRB

NORTH-CENTRAL AND NORTHEAST WISCONSIN REGIONAL WEATHER ROUNDUP
NATIONAL WEATHER SERVICE GREEN BAY WI
200 AM CST MON FEB 08 2016

WIZ005-009-010>012-018-019-080900-
NORTH CENTRAL WISCONSIN

CITY           SKY/WX    TMP DP  RH WIND       PRES   REMARKS
IRONWOOD       CLOUDY    27  25  93 N14G24    29.55R VSB 3/4
MANITOWISH WTR NOT AVBL
ARBOR VITAE    NOT AVBL
EAGLE RIVER    NOT AVBL
LAND O LAKES   NOT AVBL
RHINELANDER    LGT SNOW  28  24  85 W13       29.52R FOG
PHILLIPS       NOT AVBL
ANTIGO         NOT AVBL
TOMAHAWK       NOT AVBL
MERRILL        NOT AVBL
$$

WIZ013-073-080900-
NORTHEAST WISCONSIN

CITY           SKY/WX    TMP DP  RH WIND       PRES   REMARKS
IRON MOUNTAIN  CLOUDY    28  25  88 CALM      29.51S FOG
MARINETTE      CLOUDY    34  28  80 SW3       29.54S
$$

WIZ017-030-035>037-045-080900-
CENTRAL WISCONSIN

CITY           SKY/WX    TMP DP  RH WIND       PRES   REMARKS
MEDFORD        NOT AVBL
WAUSAU         LGT SNOW  28  24  85 NW9       29.54S FOG
MOSINEE        NOT AVBL
MARSHFIELD     LGT SNOW  24  18  77 NW16      29.57S
WISC RAPIDS    CLOUDY    27  21  78 NW9       29.60S
STEVENS POINT  NOT AVBL
WAUPACA        NOT AVBL
SHAWANO        NOT AVBL
CLINTONVILLE   NOT AVBL
WAUTOMA        NOT AVBL
$$

WIZ038-039-048-051-080900-
FOX VALLEY

CITY           SKY/WX    TMP DP  RH WIND       PRES   REMARKS
NWS GREEN BAY  CLOUDY    34  28  79 SW5       29.55F
APPLETON       NOT AVBL
OSHKOSH        CLOUDY    34  28  79 CALM      29.56S
FOND DU LAC    CLOUDY    33  28  81 SW6       29.57S
$$

WIZ022-050-052-080900-
EAST CENTRAL WISCONSIN

CITY           SKY/WX    TMP DP  RH WIND       PRES   REMARKS
EPHRAIM        NOT AVBL
STURGEON BAY   CLOUDY    34  27  75 SW5       29.57S
MANITOWOC      NOT AVBL
SHEBOYGAN      CLOUDY    30  26  85 S6        29.58S
$$

LMZ563-521-522-541>543-080900-
LAKESHORE

STATION/POSITION TIME  TEMP    WIND        PRES    VSBY  WAVE
                       AIR SEA DIR/SP/G                  HT/PER
                 (UTC) (F)     (DEG/KT/KT) (MB)    (MI)  (FT/S)
SHEBOYGAN LKSHOR 0700   32     230/  8/  9 1002.7F
KEWAUNEE LKSHORE 0700   34     240/  4/  7 1000.6F
NORTHPORT PIER   0700   36     210/  1/  8 1001.0F
CHAMBERS ISLAND  0700   34     180/  6/  9 1001.0F
MENOMINEE LKSHOR 0700   34     190/  6      999.7F
$$




USA.gov is the U.S. government's official web portal to all federal, state and local government web resources and services.